| time (UTC) | temp F | wind direction | speed MPH | gust MPH | rain 1hr in | rain 24hr in | rain mn in | humidity % | barometer mb |
| 20260510033054 | 76 | 0 | 0.0 | 0.0 | 0.00 | 0.00 | 0.00 | 78 | 1010.0 |
| 20260510031556 | 77 | 0 | 0.0 | 0.0 | 0.00 | 0.00 | 0.00 | 76 | 1009.8 |
| 20260510030055 | 77 | 142 | 0.0 | 0.0 | 0.00 | 0.00 | 0.00 | 75 | 1009.6 |
| 20260510024553 | 78 | 0 | 0.0 | 1.0 | 0.00 | 0.00 | 0.00 | 74 | 1009.2 |
| 20260510023054 | 79 | 246 | 1.0 | 4.0 | 0.00 | 0.00 | 0.00 | 72 | 1008.9 |
| 20260510021552 | 80 | 250 | 2.0 | 7.0 | 0.00 | 0.00 | 0.00 | 71 | 1008.7 |
| 20260510020053 | 81 | 281 | 4.0 | 10.0 | 0.00 | 0.00 | 0.00 | 69 | 1008.5 |
| 20260510014559 | 82 | 274 | 7.0 | 12.0 | 0.00 | 0.00 | 0.00 | 68 | 1008.1 |
| 20260510013054 | 83 | 300 | 7.0 | 16.0 | 0.00 | 0.00 | 0.00 | 66 | 1008.0 |
| 20260510011558 | 83 | 271 | 0.0 | 1.0 | 0.00 | 0.00 | 0.00 | 67 | 1008.1 |
| 20260510010057 | 85 | 0 | 0.0 | 0.0 | 0.00 | 0.00 | 0.00 | 56 | 1008.0 |
| 20260510004558 | 86 | 0 | 0.0 | 0.0 | 0.00 | 0.00 | 0.00 | 56 | 1008.1 |
| 20260510003106 | 87 | 0 | 0.0 | 0.0 | 0.00 | 0.00 | 0.00 | 59 | 1008.1 |
| 20260510001555 | 88 | 0 | 0.0 | 2.0 | 0.00 | 0.00 | 0.00 | 56 | 1007.9 |
| 20260510000055 | 88 | 244 | 2.0 | 4.0 | 0.00 | 0.00 | 0.00 | 53 | 1007.7 |
| 20260509234552 | 89 | 244 | 2.0 | 4.0 | 0.00 | 0.00 | 0.00 | 55 | 1007.7 |
| 20260509233056 | 89 | 261 | 1.0 | 4.0 | 0.00 | 0.00 | 0.00 | 53 | 1007.8 |
| 20260509231557 | 89 | 0 | 0.0 | 5.0 | 0.00 | 0.00 | 0.00 | 53 | 1007.6 |
| 20260509230057 | 89 | 250 | 4.0 | 8.0 | 0.00 | 0.00 | 0.00 | 55 | 1007.5 |
| 20260509224559 | 90 | 296 | 3.0 | 7.0 | 0.00 | 0.00 | 0.00 | 55 | 1007.5 |
| 20260509223054 | 90 | 244 | 0.0 | 7.0 | 0.00 | 0.00 | 0.00 | 54 | 1007.5 |
| 20260509221603 | 90 | 246 | 3.0 | 6.0 | 0.00 | 0.00 | 0.00 | 55 | 1007.6 |
| 20260509220055 | 90 | 128 | 1.0 | 6.0 | 0.00 | 0.00 | 0.00 | 56 | 1007.7 |
| 20260509214559 | 90 | 0 | 0.0 | 4.0 | 0.00 | 0.00 | 0.00 | 53 | 1007.8 |
| 20260509213056 | 90 | 0 | 2.0 | 5.0 | 0.00 | 0.00 | 0.00 | 53 | 1007.9 |
| 20260509211558 | 90 | 0 | 2.0 | 5.0 | 0.00 | 0.00 | 0.00 | 54 | 1008.0 |
| 20260509210113 | 90 | 136 | 1.0 | 4.0 | 0.00 | 0.00 | 0.00 | 56 | 1008.0 |
| 20260509204600 | 90 | 81 | 0.0 | 5.0 | 0.00 | 0.00 | 0.00 | 56 | 1008.1 |
| 20260509203056 | 89 | 138 | 2.0 | 7.0 | 0.00 | 0.00 | 0.00 | 60 | 1008.3 |
| 20260509201602 | 89 | 196 | 0.0 | 4.0 | 0.00 | 0.00 | 0.00 | 62 | 1008.5 |
| 20260509194553 | 89 | 59 | 2.0 | 5.0 | 0.00 | 0.00 | 0.00 | 63 | 1008.8 |
| 20260509193053 | 89 | 26 | 1.0 | 8.0 | 0.00 | 0.00 | 0.00 | 61 | 1009.1 |
| 20260509191558 | 88 | 35 | 3.0 | 12.0 | 0.00 | 0.00 | 0.00 | 63 | 1009.2 |
| 20260509190109 | 87 | 35 | 2.0 | 7.0 | 0.00 | 0.00 | 0.00 | 63 | 1009.2 |
| 20260509184552 | 86 | 120 | 3.0 | 10.0 | 0.00 | 0.00 | 0.00 | 66 | 1009.2 |
| 20260509183056 | 86 | 90 | 1.0 | 8.0 | 0.00 | 0.00 | 0.00 | 68 | 1009.4 |
| 20260509181603 | 87 | 47 | 2.0 | 8.0 | 0.00 | 0.00 | 0.00 | 65 | 1009.5 |
| 20260509180100 | 87 | 95 | 3.0 | 9.0 | 0.00 | 0.00 | 0.00 | 69 | 1009.8 |
| 20260509174600 | 87 | 96 | 2.0 | 8.0 | 0.00 | 0.00 | 0.00 | 64 | 1009.8 |
| 20260509173059 | 85 | 63 | 5.0 | 11.0 | 0.00 | 0.00 | 0.00 | 68 | 1010.2 |
| 20260509171602 | 86 | 94 | 2.0 | 7.0 | 0.00 | 0.00 | 0.00 | 67 | 1010.3 |
| 20260509170107 | 84 | 94 | 5.0 | 10.0 | 0.00 | 0.00 | 0.00 | 72 | 1010.4 |
| 20260509164600 | 83 | 136 | 0.0 | 9.0 | 0.00 | 0.00 | 0.00 | 75 | 1010.5 |
| 20260509163058 | 82 | 23 | 1.0 | 11.0 | 0.00 | 0.00 | 0.00 | 75 | 1010.2 |
| 20260509161601 | 82 | 51 | 2.0 | 10.0 | 0.00 | 0.00 | 0.00 | 74 | 1010.2 |
| 20260509160059 | 81 | 344 | 2.0 | 7.0 | 0.00 | 0.00 | 0.00 | 73 | 1009.8 |
| 20260509154555 | 81 | 288 | 4.0 | 9.0 | 0.00 | 0.00 | 0.00 | 77 | 1009.1 |
| 20260509153057 | 80 | 347 | 3.0 | 8.0 | 0.00 | 0.00 | 0.00 | 77 | 1010.1 |
| 20260509151603 | 80 | 341 | 2.0 | 8.0 | 0.00 | 0.00 | 0.00 | 79 | 1010.5 |
| 20260509150058 | 78 | 61 | 1.0 | 8.0 | 0.00 | 0.00 | 0.00 | 81 | 1010.3 |
| 20260509144555 | 77 | 0 | 1.0 | 14.0 | 0.00 | 0.00 | 0.00 | 82 | 1010.1 |
| 20260509143056 | 77 | 279 | 8.0 | 12.0 | 0.00 | 0.00 | 0.00 | 85 | 1009.0 |
| 20260509141557 | 76 | 273 | 6.0 | 10.0 | 0.00 | 0.00 | 0.00 | 88 | 1009.8 |
| 20260509134625 | 75 | 286 | 0.0 | 0.0 | 0.00 | 0.00 | 0.00 | 89 | 1010.3 |
| 20260509133057 | 74 | 34 | 1.0 | 3.0 | 0.00 | 0.00 | 0.00 | 89 | 1010.1 |
| 20260509131554 | 74 | 0 | 0.0 | 0.0 | 0.00 | 0.00 | 0.00 | 87 | 1010.3 |
| 20260509130052 | 74 | 0 | 0.0 | 0.0 | 0.00 | 0.00 | 0.00 | 89 | 1009.9 |
| 20260509124552 | 74 | 0 | 0.0 | 0.0 | 0.00 | 0.00 | 0.00 | 90 | 1009.9 |
| 20260509123055 | 74 | 0 | 0.0 | 1.0 | 0.00 | 0.00 | 0.00 | 90 | 1010.4 |
| 20260509121554 | 74 | 0 | 0.0 | 9.0 | 0.00 | 0.00 | 0.00 | 91 | 1010.6 |
| 20260509120056 | 74 | 103 | 2.0 | 6.0 | 0.00 | 0.00 | 0.00 | 91 | 1010.6 |
| 20260509114552 | 74 | 74 | 2.0 | 6.0 | 0.00 | 0.00 | 0.00 | 91 | 1009.8 |
| 20260509113056 | 73 | 140 | 1.0 | 10.0 | 0.00 | 0.00 | 0.00 | 92 | 1009.2 |
| 20260509111554 | 73 | 172 | 8.0 | 16.0 | 0.00 | 0.00 | 0.00 | 92 | 1008.0 |
| 20260509110053 | 73 | 135 | 4.0 | 15.0 | 0.00 | 0.00 | 0.00 | 92 | 1008.5 |
| 20260509104555 | 73 | 259 | 5.0 | 8.0 | 0.00 | 0.00 | 0.00 | 92 | 1009.2 |
| 20260509103055 | 73 | 0 | 0.0 | 10.0 | 0.00 | 0.00 | 0.00 | 91 | 1009.8 |
| 20260509101601 | 73 | 242 | 4.0 | 7.0 | 0.00 | 0.00 | 0.00 | 91 | 1008.9 |
| 20260509100054 | 73 | 244 | 2.0 | 6.0 | 0.00 | 0.00 | 0.00 | 91 | 1009.1 |
| 20260509094553 | 73 | 0 | 0.0 | 3.0 | 0.00 | 0.00 | 0.00 | 91 | 1008.7 |
| 20260509093059 | 72 | 0 | 0.0 | 3.0 | 0.00 | 0.00 | 0.00 | 91 | 1008.7 |
| 20260509091556 | 72 | 291 | 2.0 | 4.0 | 0.00 | 0.00 | 0.00 | 91 | 1008.4 |
| 20260509090053 | 72 | 0 | 0.0 | 0.0 | 0.00 | 0.00 | 0.00 | 91 | 1008.4 |
| 20260509084555 | 72 | 0 | 0.0 | 0.0 | 0.00 | 0.00 | 0.00 | 91 | 1008.4 |
| 20260509083054 | 72 | 0 | 0.0 | 0.0 | 0.00 | 0.00 | 0.00 | 91 | 1008.8 |
| 20260509081555 | 72 | 0 | 0.0 | 0.0 | 0.00 | 0.00 | 0.00 | 91 | 1009.3 |
| 20260509080050 | 72 | 0 | 0.0 | 0.0 | 0.00 | 0.00 | 0.00 | 90 | 1009.2 |
| 20260509074603 | 72 | 0 | 1.0 | 5.0 | 0.00 | 0.00 | 0.00 | 90 | 1009.2 |
| 20260509073050 | 72 | 0 | 0.0 | 3.0 | 0.00 | 0.00 | 0.00 | 90 | 1009.0 |
| 20260509071606 | 72 | 0 | 0.0 | 0.0 | 0.00 | 0.00 | 0.00 | 90 | 1009.4 |
| 20260509070053 | 72 | 0 | 1.0 | 4.0 | 0.00 | 0.00 | 0.00 | 89 | 1009.4 |
| 20260509064559 | 73 | 0 | 0.0 | 6.0 | 0.00 | 0.00 | 0.00 | 89 | 1009.5 |
| 20260509063052 | 73 | 265 | 0.0 | 0.0 | 0.00 | 0.00 | 0.00 | 89 | 1009.9 |
| 20260509061602 | 73 | 0 | 0.0 | 0.0 | 0.00 | 0.00 | 0.00 | 89 | 1010.1 |
| 20260509060054 | 73 | 0 | 0.0 | 0.0 | 0.00 | 0.00 | 0.00 | 88 | 1010.0 |
| 20260509054555 | 73 | 0 | 0.0 | 0.0 | 0.00 | 0.00 | 0.00 | 88 | 1010.1 |
| 20260509053055 | 73 | 0 | 0.0 | 4.0 | 0.00 | 0.00 | 0.00 | 88 | 1010.1 |
| 20260509051556 | 73 | 244 | 3.0 | 8.0 | 0.00 | 0.00 | 0.00 | 88 | 1010.1 |
| 20260509050105 | 73 | 257 | 3.0 | 7.0 | 0.00 | 0.00 | 0.00 | 88 | 1010.1 |
| 20260509044553 | 73 | 248 | 1.0 | 4.0 | 0.00 | 0.00 | 0.00 | 88 | 1009.8 |
| 20260509043058 | 73 | 0 | 1.0 | 4.0 | 0.00 | 0.00 | 0.00 | 88 | 1010.1 |
| 20260509041554 | 73 | 0 | 0.0 | 6.0 | 0.00 | 0.00 | 0.00 | 88 | 1010.2 |
| 20260509040054 | 73 | 0 | 0.0 | 3.0 | 0.00 | 0.00 | 0.00 | 88 | 1010.0 |
| 20260509034555 | 73 | 0 | 1.0 | 4.0 | 0.00 | 0.00 | 0.00 | 88 | 1009.8 |